When you browse on this site, cookies collect data to enhance your experience and personalize the content and advertising you see.
Visit our Privacy Policy to learn more. By continuing to use the site, you agree to this use of cookies and data.
  • In Czech Republic
  • List of Countries
  • For 7 days
  • Water Temperature
  • Weather Map
  • Weather Widgets
  • user-avatar
    Login

    Hourly Weather Brno

    Today, 13 November, Wednesday

    Time Temperature Precipitation Wind Pressure Humidity
    00:00 +8°C° 0.8 mm 1 mps 732 mmHg 98%
    01:00 +8°C° 0.8 mm 1 mps 732 mmHg 98%
    02:00 +8°C° 0 mm 1 mps 732 mmHg 97%
    03:00 +8°C° 0 mm 1 mps 731 mmHg 96%
    04:00 +8°C° 0 mm 1 mps 731 mmHg 96%
    05:00 +8°C° 0 mm 1 mps 731 mmHg 95%
    06:00 +8°C° 0 mm 1 mps 730 mmHg 95%
    07:00 +8°C° 0 mm 1 mps 730 mmHg 95%
    08:00 +8°C° 0.8 mm 1 mps 730 mmHg 95%
    09:00 +8°C° 0.8 mm 1 mps 730 mmHg 95%
    10:00 +7°C° 0.8 mm 0 mps 730 mmHg 96%
    11:00 +8°C° 0.6 mm 1 mps 730 mmHg 95%
    12:00 +8°C° 0.6 mm 1 mps 730 mmHg 94%
    13:00 +4°C° 0 mm 3 mps 731 mmHg 83%
    14:00 +4°C° 1.4 mm 3 mps 731 mmHg 86%
    15:00 +3°C° 1.4 mm 4 mps 731 mmHg 89%
    16:00 +2°C° 1.4 mm 5 mps 731 mmHg 91%
    17:00 +2°C° 0.9 mm 5 mps 731 mmHg 92%
    18:00 +2°C° 0.9 mm 5 mps 732 mmHg 93%
    19:00 +2°C° 0.9 mm 5 mps 732 mmHg 94%
    20:00 +2°C° 0.2 mm 5 mps 733 mmHg 93%
    21:00 +3°C° 0.2 mm 4 mps 733 mmHg 93%
    22:00 +3°C° 0.2 mm 4 mps 734 mmHg 92%
    23:00 +3°C° 0 mm 3 mps 734 mmHg 91%

    Tomorrow, 14 November, Thursday

    Time Temperature Precipitation Wind Pressure Humidity
    00:00 +2°C° 0 mm 3 mps 735 mmHg 90%
    01:00 +3°C° 0 mm 2 mps 735 mmHg 89%
    02:00 +4°C° 0 mm 1 mps 735 mmHg 90%
    03:00 +3°C° 0 mm 1 mps 735 mmHg 90%
    04:00 +2°C° 0 mm 0 mps 735 mmHg 90%
    05:00 +2°C° 0 mm 0 mps 736 mmHg 91%
    06:00 +1°C° 0 mm 0 mps 736 mmHg 91%
    07:00 +2°C° 0 mm 1 mps 736 mmHg 92%
    08:00 +3°C° 0 mm 1 mps 736 mmHg 88%
    09:00 +3°C° 0 mm 2 mps 736 mmHg 83%
    10:00 +5°C° 0 mm 2 mps 736 mmHg 79%
    11:00 +5°C° 0 mm 3 mps 736 mmHg 76%
    12:00 +6°C° 0 mm 4 mps 736 mmHg 72%
    13:00 +7°C° 0 mm 4 mps 736 mmHg 68%
    14:00 +6°C° 0 mm 4 mps 736 mmHg 72%
    15:00 +6°C° 0 mm 4 mps 736 mmHg 76%
    16:00 +6°C° 0 mm 4 mps 735 mmHg 80%
    17:00 +5°C° 0 mm 4 mps 735 mmHg 81%
    18:00 +5°C° 0 mm 4 mps 735 mmHg 82%
    19:00 +5°C° 0 mm 4 mps 735 mmHg 84%
    20:00 +5°C° 0 mm 5 mps 735 mmHg 84%
    21:00 +5°C° 0 mm 5 mps 735 mmHg 84%
    22:00 +5°C° 0 mm 5 mps 735 mmHg 84%
    23:00 +5°C° 0 mm 5 mps 735 mmHg 86%

    Day after tomorrow, 15 November, Friday

    Time Temperature Precipitation Wind Pressure Humidity
    00:00 +5°C° 0 mm 5 mps 735 mmHg 88%
    01:00 +5°C° 0 mm 5 mps 734 mmHg 90%
    02:00 +4°C° 0 mm 6 mps 734 mmHg 91%
    03:00 +4°C° 0 mm 6 mps 734 mmHg 92%
    04:00 +5°C° 0 mm 7 mps 734 mmHg 93%
    05:00 +5°C° 0 mm 7 mps 734 mmHg 93%
    06:00 +6°C° 0 mm 7 mps 734 mmHg 93%
    07:00 +6°C° 0 mm 7 mps 734 mmHg 93%
    08:00 +8°C° 0 mm 7 mps 734 mmHg 91%
    09:00 +9°C° 0 mm 8 mps 734 mmHg 89%
    10:00 +9°C° 0 mm 8 mps 734 mmHg 87%
    11:00 +10°C° 0 mm 8 mps 734 mmHg 85%
    12:00 +10°C° 0 mm 7 mps 734 mmHg 84%
    13:00 +11°C° 0 mm 7 mps 734 mmHg 82%
    14:00 +10°C° 0 mm 7 mps 734 mmHg 83%
    15:00 +10°C° 0 mm 6 mps 734 mmHg 84%
    16:00 +10°C° 0 mm 5 mps 734 mmHg 86%
    17:00 +10°C° 0 mm 6 mps 734 mmHg 86%
    18:00 +10°C° 0 mm 6 mps 734 mmHg 86%
    19:00 +10°C° 0 mm 6 mps 734 mmHg 86%
    20:00 +10°C° 0 mm 6 mps 734 mmHg 86%
    21:00 +10°C° 0 mm 6 mps 734 mmHg 85%
    22:00 +10°C° 0 mm 6 mps 734 mmHg 85%
    23:00 +10°C° 0 mm 6 mps 734 mmHg 85%

    16 November, Saturday

    Time Temperature Precipitation Wind Pressure Humidity
    00:00 +10°C° 0 mm 6 mps 734 mmHg 86%
    01:00 +10°C° 0 mm 6 mps 735 mmHg 86%
    02:00 +10°C° 0.1 mm 6 mps 734 mmHg 86%
    03:00 +10°C° 0.1 mm 6 mps 734 mmHg 85%
    04:00 +10°C° 0.1 mm 6 mps 733 mmHg 85%
    05:00 +10°C° 0.1 mm 6 mps 734 mmHg 84%
    06:00 +10°C° 0.1 mm 7 mps 734 mmHg 83%
    07:00 +10°C° 0.1 mm 8 mps 734 mmHg 82%
    08:00 +10°C° 0 mm 8 mps 734 mmHg 80%
    09:00 +10°C° 0 mm 8 mps 735 mmHg 78%
    10:00 +10°C° 0 mm 8 mps 735 mmHg 76%
    11:00 +11°C° 0 mm 8 mps 735 mmHg 72%
    12:00 +11°C° 0 mm 8 mps 736 mmHg 69%
    13:00 +12°C° 0 mm 8 mps 736 mmHg 65%
    14:00 +11°C° 0 mm 6 mps 736 mmHg 68%
    15:00 +11°C° 0 mm 4 mps 737 mmHg 70%
    16:00 +10°C° 0 mm 3 mps 737 mmHg 73%
    17:00 +9°C° 0 mm 3 mps 738 mmHg 76%
    18:00 +9°C° 0 mm 2 mps 738 mmHg 79%
    19:00 +8°C° 0 mm 2 mps 739 mmHg 82%
    20:00 +8°C° 0 mm 2 mps 739 mmHg 85%
    21:00 +7°C° 0 mm 2 mps 740 mmHg 88%
    22:00 +7°C° 0 mm 2 mps 740 mmHg 91%
    23:00 +7°C° 0 mm 2 mps 740 mmHg 91%

    17 November, Sunday

    Time Temperature Precipitation Wind Pressure Humidity
    00:00 +7°C° 0 mm 2 mps 740 mmHg 92%
    01:00 +7°C° 0 mm 2 mps 740 mmHg 92%
    02:00 +7°C° 0 mm 2 mps 740 mmHg 90%
    03:00 +7°C° 0 mm 2 mps 739 mmHg 88%
    04:00 +8°C° 0 mm 2 mps 739 mmHg 86%
    05:00 +7°C° 0 mm 2 mps 739 mmHg 87%
    06:00 +7°C° 0 mm 2 mps 739 mmHg 88%
    07:00 +7°C° 0 mm 2 mps 739 mmHg 90%
    08:00 +8°C° 0 mm 3 mps 739 mmHg 88%
    09:00 +8°C° 0 mm 4 mps 739 mmHg 86%
    10:00 +10°C° 0 mm 5 mps 739 mmHg 84%
    11:00 +10°C° 0 mm 5 mps 738 mmHg 81%
    12:00 +12°C° 0 mm 5 mps 738 mmHg 78%
    13:00 +13°C° 0 mm 5 mps 737 mmHg 75%
    14:00 +12°C° 0 mm 5 mps 737 mmHg 77%
    15:00 +12°C° 0 mm 4 mps 736 mmHg 79%
    16:00 +11°C° 0 mm 3 mps 736 mmHg 80%
    17:00 +11°C° 0 mm 3 mps 736 mmHg 81%
    18:00 +10°C° 0 mm 3 mps 736 mmHg 82%
    19:00 +10°C° 0 mm 3 mps 735 mmHg 82%
    20:00 +10°C° 0 mm 3 mps 735 mmHg 81%
    21:00 +10°C° 0 mm 4 mps 735 mmHg 79%
    22:00 +10°C° 0 mm 4 mps 734 mmHg 78%
    23:00 +10°C° 0 mm 4 mps 734 mmHg 77%

    18 November, Monday

    Time Temperature Precipitation Wind Pressure Humidity
    00:00 +9°C° 0 mm 5 mps 733 mmHg 77%
    01:00 +9°C° 0 mm 5 mps 733 mmHg 76%
    02:00 +9°C° 0 mm 5 mps 732 mmHg 79%
    03:00 +9°C° 0 mm 6 mps 732 mmHg 82%
    04:00 +9°C° 0 mm 6 mps 732 mmHg 86%
    05:00 +9°C° 0 mm 6 mps 732 mmHg 87%
    06:00 +8°C° 0 mm 6 mps 732 mmHg 88%
    07:00 +8°C° 0 mm 6 mps 732 mmHg 90%
    08:00 +9°C° 0 mm 6 mps 732 mmHg 84%
    09:00 +9°C° 0 mm 7 mps 733 mmHg 78%
    10:00 +10°C° 0 mm 8 mps 733 mmHg 71%
    11:00 +10°C° 0 mm 8 mps 733 mmHg 67%
    12:00 +11°C° 0 mm 8 mps 733 mmHg 62%
    13:00 +12°C° 0 mm 8 mps 734 mmHg 57%
    14:00 +11°C° 0 mm 7 mps 734 mmHg 63%
    15:00 +10°C° 0 mm 6 mps 734 mmHg 68%
    16:00 +10°C° 0 mm 5 mps 734 mmHg 73%
    17:00 +10°C° 0 mm 4 mps 735 mmHg 77%
    18:00 +8°C° 0 mm 4 mps 735 mmHg 80%
    19:00 +8°C° 0 mm 3 mps 736 mmHg 83%
    20:00 +7°C° 0 mm 3 mps 736 mmHg 84%
    21:00 +7°C° 0 mm 2 mps 737 mmHg 85%
    22:00 +7°C° 0 mm 1 mps 737 mmHg 86%
    23:00 +7°C° 0 mm 1 mps 738 mmHg 87%
    Show more